DW7199 Weather Reports


time (UTC)temp
F
wind
direction
speed
knots
gust
knots
rain 1hr
in
rain 24hr
in
rain mn
in
humidity
%
barometer
mb
20260510164529 82 183 2.6 6.1 0.00 0.00 0.00 57 1015.8
20260510163018 80 256 0.0 5.2 0.00 0.00 0.00 61 1015.7
20260510161514 81 34 1.7 4.3 0.00 0.00 0.00 61 1015.9
20260510160012 79 223 1.7 5.2 0.00 0.00 0.00 64 1015.8
20260510154508 79 247 1.7 4.3 0.00 0.00 0.00 66 1015.6
20260510153004 77 64 1.7 3.5 0.00 0.00 0.00 69 1015.5
20260510151503 77 293 1.7 4.3 0.00 0.00 0.00 70 1015.6
20260510150107 76 291 0.9 3.5 0.00 0.00 0.00 71 1015.5
20260510144555 74 4 0.9 4.3 0.00 0.00 0.00 77 1015.4
20260510143055 73 247 0.9 5.2 0.00 0.00 0.00 79 1015.5
20260510141549 72 260 1.7 4.3 0.00 0.00 0.00 81 1015.5
20260510140047 71 333 0.9 3.5 0.00 0.00 0.00 85 1015.4
20260510134542 70 8 0.0 0.0 0.00 0.00 0.00 90 1015.2
20260510133038 68 120 0.0 0.0 0.00 0.00 0.00 93 1015.0
20260510131536 66 58 0.0 0.0 0.00 0.00 0.00 95 1015.1
20260510130034 65 58 0.0 0.0 0.00 0.00 0.00 96 1015.3
20260510124551 64 58 0.0 0.0 0.00 0.00 0.00 97 1015.1
20260510123026 63 152 0.0 0.0 0.00 0.00 0.00 97 1015.0
20260510121522 62 152 0.0 0.0 0.00 0.00 0.00 96 1014.8
20260510120019 61 116 0.0 0.0 0.00 0.00 0.00 96 1014.7
20260510114516 59 91 0.0 1.7 0.00 0.00 0.00 96 1014.6
20260510113014 57 71 0.0 0.0 0.00 0.00 0.00 96 1014.4
20260510111508 55 143 0.0 0.0 0.00 0.00 0.00 95 1014.1
20260510110010 55 128 0.0 0.9 0.00 0.00 0.00 95 1013.9
20260510104507 55 58 0.0 0.0 0.00 0.00 0.00 94 1013.5
20260510103002 55 58 0.0 0.0 0.00 0.00 0.00 95 1013.2
20260510101605 54 20 0.0 0.0 0.00 0.00 0.00 94 1013.2
20260510094556 53 162 0.0 0.0 0.00 0.00 0.00 93 1012.9
20260510093056 53 162 0.0 0.0 0.00 0.00 0.00 93 1012.8
20260510091559 53 162 0.0 0.0 0.00 0.00 0.00 93 1012.7
20260510090103 53 162 0.0 0.0 0.00 0.00 0.00 92 1012.6
20260510084559 53 162 0.0 0.0 0.00 0.00 0.00 92 1012.6
20260510083052 53 162 0.0 0.0 0.00 0.00 0.00 91 1012.7
20260510081550 53 162 0.0 0.0 0.00 0.00 0.00 91 1012.4
20260510080057 53 162 0.0 0.0 0.00 0.00 0.00 90 1012.2
20260510074548 54 162 0.0 0.0 0.00 0.00 0.00 90 1012.2
20260510073047 54 162 0.0 0.0 0.00 0.00 0.00 90 1012.1
20260510071545 54 162 0.0 0.0 0.00 0.00 0.00 90 1012.4
20260510070048 54 162 0.0 0.0 0.00 0.00 0.00 90 1012.4
20260510064603 54 162 0.0 0.0 0.00 0.00 0.00 90 1012.4
20260510063046 54 162 0.0 0.0 0.00 0.00 0.00 89 1012.3
20260510061547 54 162 0.0 0.0 0.00 0.00 0.00 88 1012.1
20260510060041 55 162 0.0 0.0 0.00 0.00 0.00 87 1012.0
20260510054538 55 162 0.0 0.0 0.00 0.00 0.00 87 1012.0
20260510053037 55 162 0.0 0.0 0.00 0.00 0.00 87 1011.9
20260510051535 56 162 0.0 0.0 0.00 0.00 0.00 88 1011.8
20260510050032 56 162 0.0 0.0 0.00 0.00 0.00 86 1011.8
20260510044533 56 162 0.0 0.0 0.00 0.00 0.00 85 1011.8
20260510043029 57 162 0.0 0.0 0.00 0.00 0.00 86 1011.8
20260510041526 57 162 0.0 1.7 0.00 0.00 0.00 85 1011.8
20260510040027 58 162 0.0 0.0 0.00 0.00 0.00 82 1011.8
20260510034525 59 162 0.0 0.0 0.00 0.00 0.00 82 1011.8
20260510033025 59 162 0.0 0.0 0.00 0.00 0.00 81 1011.8
20260510031527 60 162 0.0 0.0 0.00 0.00 0.00 80 1011.8
20260510030024 61 162 0.0 0.0 0.00 0.00 0.00 78 1011.8
20260510024525 62 162 0.0 0.0 0.00 0.00 0.00 77 1011.8
20260510023021 64 162 0.0 0.0 0.00 0.00 0.00 75 1011.6
20260510021519 65 162 0.0 0.0 0.00 0.00 0.00 71 1011.4
20260510020018 66 162 0.0 0.0 0.00 0.00 0.00 70 1011.2
20260510014517 68 163 0.0 0.0 0.00 0.00 0.00 68 1010.9
20260510013020 70 162 0.0 0.0 0.00 0.00 0.00 67 1010.7
20260510011520 73 162 0.0 0.0 0.00 0.00 0.00 63 1010.6
20260510010014 76 162 0.0 0.0 0.00 0.00 0.00 56 1010.3
20260510004513 79 162 0.0 0.0 0.00 0.00 0.00 52 1010.1
20260510003013 81 162 0.0 0.0 0.00 0.00 0.00 43 1009.8
20260510001513 83 162 0.0 0.0 0.00 0.00 0.00 43 1009.8
20260510000012 85 162 0.0 0.0 0.00 0.00 0.00 35 1009.6
20260509234519 85 162 0.0 1.7 0.00 0.00 0.00 35 1009.4
20260509233028 85 162 0.0 1.7 0.00 0.00 0.00 32 1009.3
20260509231510 85 268 0.0 1.7 0.00 0.00 0.00 30 1009.3
20260509230010 84 276 0.0 0.9 0.00 0.00 0.00 30 1009.2
20260509224514 84 341 0.0 1.7 0.00 0.00 0.00 30 1009.1
20260509223010 84 25 0.9 2.6 0.00 0.00 0.00 30 1009.2
20260509221509 84 349 0.0 2.6 0.00 0.00 0.00 30 1009.4
20260509220016 84 104 0.0 3.5 0.00 0.00 0.00 32 1009.3
20260509214508 83 18 0.9 5.2 0.00 0.00 0.00 35 1009.4
20260509213007 85 4 1.7 3.5 0.00 0.00 0.00 30 1009.5
20260509211505 84 172 2.6 4.3 0.00 0.00 0.00 30 1009.4
20260509210005 83 46 0.0 1.7 0.00 0.00 0.00 30 1009.6
20260509204504 84 12 2.6 6.1 0.00 0.00 0.00 33 1009.6
20260509203002 84 237 0.9 3.5 0.00 0.00 0.00 34 1009.6
20260509201603 83 135 1.7 5.2 0.00 0.00 0.00 31 1009.6
20260509200107 82 359 0.9 7.0 0.00 0.00 0.00 31 1009.8
20260509194557 82 303 0.9 6.1 0.00 0.00 0.00 35 1009.8
20260509193100 83 322 2.6 4.3 0.00 0.00 0.00 40 1009.8
20260509191556 82 359 0.9 4.3 0.00 0.00 0.00 37 1009.9
20260509184553 80 25 2.6 6.1 0.00 0.00 0.00 38 1010.2
20260509183047 79 339 3.5 6.1 0.00 0.00 0.00 41 1010.2
20260509181546 79 344 3.5 6.1 0.00 0.00 0.00 39 1010.5
20260509180047 79 50 0.9 5.2 0.00 0.00 0.00 43 1010.6
20260509174542 78 17 3.5 6.1 0.00 0.00 0.00 42 1010.5
20260509173041 77 323 2.6 6.1 0.00 0.00 0.00 48 1010.5
20260509171540 77 264 2.6 5.2 0.00 0.00 0.00 53 1010.6
20260509170040 76 209 1.7 7.0 0.00 0.00 0.00 52 1010.7